Regional Weather Roundup
Issued by NWS Cleveland, OH

Home | Current Version | Previous Version | Text Only | Print | Product List | Glossary Off
Versions: 1 2 3 4 5 6 7 8 9 10 11 12 13 14 15 16 17 18 19 20 21 22 23 24 25 26 27 28 29 30 31 32 33 34 35 36 37 38 39 40 41 42 43 44 45 46 47 48 49 50

000
ASUS41 KCLE 242100
RWRCLE
OHIO REGIONAL WEATHER ROUNDUP
NATIONAL WEATHER SERVICE WILMINGTON, OH
400 PM EST MON NOV 24 2014

NOTE: "FAIR" INDICATES FEW OR NO CLOUDS BELOW 12,000 FEET WITH NO
SIGNIFICANT WEATHER AND/OR OBSTRUCTIONS TO VISIBILITY.

OHZ001>008-015>018-024>027-034-035-043-044-242200-
   NORTHWEST OHIO

CITY           SKY/WX    TMP DP  RH WIND       PRES   REMARKS
DEFIANCE       NOT AVBL
FINDLAY        CLOUDY    42  33  70 SW28G40   29.56R
TOLEDO EXPRESS CLOUDY    40  32  73 SW35G46   29.50R
TOLEDO METCALF CLOUDY    41  32  70 SW28G43   29.53R
LIMA           CLOUDY    42  33  70 SW29G40   29.58R
$$

OHZ009>014-019>023-028>033-038-089-242200-
   NORTHEAST OHIO

CITY           SKY/WX    TMP DP  RH WIND       PRES   REMARKS
CLE-HOPKINS    MOCLDY    49  38  65 SW29G43   29.52R
CLE-LAKEFRONT  MOCLDY    50  38  63 SW26G41   29.49R
CUY CO. ARPT   MOCLDY    54  41  62 SW23G35   29.49
LORAIN-ELYRIA  LGT RAIN  47  37  68 W33G43    29.52R
ASHTABULA      MOCLDY    57  40  52 SW36G52   29.45R
AKRON-CANTON   PTCLDY    55  38  52 W18G41    29.52R
WOOSTER        NOT AVBL
MANSFIELD      MOCLDY    46  36  68 SW24G39   29.55R
YOUNGSTOWN     PTCLDY    57  42  57 SW29G44   29.48R
$$

OHZ042-051>053-060>062-070>072-077>081-242200-
  SOUTHWEST OHIO

CITY           SKY/WX    TMP DP  RH WIND       PRES   REMARKS
CINC-COVINGTON CLOUDY    45  32  60 SW20G28   29.72R
CINC-LUNKEN    CLOUDY    46  34  62 SW21G31   29.73R
HAMILTON       CLOUDY    45  34  65 SW16G25   29.71R
DAYTON         NOT AVBL
WRIGHT-PAT AFB NOT AVBL
DAYTON GENERAL CLOUDY    43  33  68 SW16G26   29.68R
WILMINGTON     CLOUDY    44  33  65 SW23G31   29.67R
$$

OHZ036-037-039>041-045>050-054>059-063>069-073>076-082>088-242200-
  CENTRAL AND SOUTHEAST OHIO

CITY           SKY/WX    TMP DP  RH WIND       PRES   REMARKS
COLUMBUS       PTSUNNY   49  37  63 SW22G36   29.64R
OSU AIRPORT    LGT RAIN  46  35  65 W20G37    29.62R
BOLTON FIELD   CLOUDY    46  37  71 W28G35    29.64R
RICKENBACK AFB NOT AVBL
NEWARK         MOSUNNY   51  37  58 SW23G39   29.61R
MARION         CLOUDY    45  35  68 SW26G38   29.59R
LANCASTER      PTSUNNY   51  39  63 W18G35    29.64R
ZANESVILLE     PTCLDY    57  39  51 W21G30    29.59R
NEW PHILLY     PTCLDY    58  40  51 W17G33    29.57R
$$



USA.gov is the U.S. government's official web portal to all federal, state and local government web resources and services.